CAPE
0 0 0 0 0 0 0 0 0 0 15 17 59 65 27 19 82 146 125 211 82 20 6 0 0 0 0 0 0 0 0 0 0 8 0 0 0 0 29 40 12 68 149 237
0 0 0 0 0 0 0 0 0 0 3 0 1 60 77 17 183 172 193 149 158 69 16 0 0 0 0 0 0 0 0 0 0 0 0 0 0 0 0 0 0 115 164 213
0 0 0 0 0 0 0 0 0 0 6 3 0 0 52 56 19 66 204 149 214 149 104 43 0 0 0 0 0 0 0 0 0 0 0 0 0 0 0 0 0 196 254 208
0 0 0 0 0 0 0 0 0 0 0 0 2 0 0 83 76 101 97 152 173 225 221 201 0 0 0 0 0 0 0 0 0 0 0 0 0 0 0 0 0 46 200 244
0 0 0 0 0 0 0 0 0 0 0 0 0 0 12 37 69 29 92 166 183 276 267 287 199 0 0 0 8 0 0 0 0 0 0 0 0 0 0 0 0 17 131 204
0 0 0 0 0 0 0 0 0 0 0 0 0 0 0 3 15 108 53 173 213 280 340 324 289 140 1 1 1 22 9 0 0 0 0 12 84 29 7 0 0 46 207 276
0 0 0 0 0 0 0 1 0 0 0 0 1 2 0 2 6 2 72 104 196 155 344 347 302 353 193 6 100 68 38 35 52 40 29 66 194 204 85 28 0 40 258 330
0 0 0 0 0 0 0 0 0 0 0 0 0 0 0 0 0 0 1 94 88 118 268 347 356 389 383 254 122 157 64 56 84 102 124 212 204 240 219 120 36 97 202 257
0 0 0 0 0 0 0 0 0 0 50 15 0 15 0 0 0 1 0 0 0 71 281 359 405 416 423 387 335 244 131 30 120 122 190 309 257 222 285 278 241 263 206 273
0 0 0 0 0 0 1 0 7 2 0 0 0 3 11 0 0 2 0 0 0 98 174 243 467 484 460 420 408 332 285 211 139 230 202 189 354 311 329 491 455 239 325 288
0 0 0 0 0 0 0 0 0 18 24 0 0 0 1 0 1 0 0 0 32 188 219 154 215 373 544 480 434 470 466 478 477 359 279 298 298 523 532 500 563 360 377 640
0 0 0 0 0 0 0 0 0 14 0 48 11 0 2 1 0 0 0 0 0 135 216 254 277 271 331 513 545 616 551 487 512 454 311 228 138 251 188 92 350 403 770 883
0 0 0 0 0 0 0 0 0 0 34 42 24 0 29 3 0 0 0 0 0 110 225 382 457 480 458 683 697 822 852 758 669 577 413 379 343 99 72 319 681 897 1123 737
2 0 0 0 0 0 0 0 0 0 1 10 12 1 34 15 29 0 11 7 0 41 223 361 533 610 619 698 1170 1374 1428 1213 674 585 758 727 618 455 448 565 569 597 437 243
7 0 0 0 0 0 0 0 0 0 0 4 0 10 16 46 46 14 15 11 2 0 228 366 589 729 849 974 1242 1439 1198 1124 1112 1110 900 922 863 703 596 448 326 272 300 209
1 0 0 0 0 0 0 0 0 5 15 38 37 2 14 11 16 31 3 3 0 0 3 307 552 759 950 1115 1153 1135 1168 1143 996 1108 920 812 734 802 646 455 393 308 153 107
0 0 0 0 0 0 0 0 0 0 1 0 0 0 7 37 40 27 4 0 0 0 0 0 538 868 1005 1158 1162 1193 1166 993 865 908 848 655 501 448 312 163 96 24 0 0
0 7 15 0 1 0 0 0 0 0 0 0 3 1 1 4 4 3 8 6 0 4 4 400 429 846 997 1056 1111 1143 1041 1093 741 553 533 429 329 226 72 13 0 0 0 0
17 20 6 0 0 0 0 0 0 1 0 0 0 0 0 0 0 5 2 8 6 23 115 610 732 881 1017 1011 1002 1087 914 853 486 246 225 239 135 28 18 0 0 0 0 0
0 7 18 21 0 0 0 0 0 3 0 0 0 1 0 0 6 3 5 16 34 99 165 223 294 686 723 624 589 607 561 388 250 144 76 37 26 0 0 0 0 0 0 0
0 0 0 1 0 0 12 0 7 3 0 0 3 21 4 2 12 5 0 22 37 54 70 89 96 112 127 164 217 162 101 68 11 0 0 0 0 0 0 0 0 0 0 0
0 0 0 2 0 0 55 27 10 0 0 0 26 34 6 14 7 2 1 4 0 0 0 0 0 0 0 0 0 0 0 0 0 0 0 0 0 0 0 0 0 0 0 0
46 0 0 0 0 32 13 46 53 7 5 89 116 103 67 53 32 25 0 0 0 0 0 0 0 0 0 0 0 0 0 0 0 0 0 0 0 0 0 0 0 0 0 0
83 41 6 56 0 0 4 3 0 1 3 54 28 63 72 39 31 2 19 0 0 0 0 0 0 0 0 0 0 0 0 0 0 0 0 0 0 0 0 0 0 0 0 0
41 64 14 8 7 1 0 7 4 0 1 29 37 18 39 3 23 2 27 0 0 0 0 0 0 0 0 0 0 0 0 0 0 0 0 0 0 0 0 0 0 0 0 0
8 0 0 0 0 7 34 110 60 53 0 0 15 18 37 33 13 2 5 0 0 0 0 0 0 0 0 0 0 0 0 0 0 0 0 0 0 0 0 0 0 0 0 0
CIN
0 0 0 0 0 0 0 0 -1 0 -14 -2 -58 -34 -29 -71 -62 -82 -50 -65 -73 -207 -150 0 0 0 0 0 0 0 0 0 0 0 0 0 0 0 -35 -54 -38 -55 -34 -62
0 0 0 0 0 0 0 0 0 0 -4 0 -25 -45 -56 -56 -75 -65 -11 -81 -110 -128 -177 0 0 0 0 0 0 0 0 0 0 0 0 0 0 0 0 0 0 -64 -46 -42
0 0 0 0 0 0 0 0 0 0 -11 -14 0 0 -115 -44 -23 -128 -40 -62 -101 -137 -119 -101 0 0 0 0 0 0 0 0 0 0 0 0 0 0 0 0 0 -32 -11 -32
0 0 0 0 0 0 0 0 0 0 0 -1 -6 0 0 -123 -82 -318 -133 -71 -112 -143 -120 -97 0 0 0 0 0 0 0 0 0 0 0 0 0 0 0 0 0 -59 -22 -24
0 0 0 0 0 0 0 0 0 0 0 0 0 0 -41 -91 -60 -55 -59 -42 -53 -162 -134 -108 -99 0 0 0 -265 0 0 0 0 0 0 0 0 0 0 0 0 -98 -58 -30
0 0 0 0 0 0 0 0 -8 0 0 0 0 0 0 -25 -10 -29 -39 -48 -47 -136 -149 -129 -83 -92 -92 -63 -103 -228 -179 0 0 0 0 -93 -59 -82 -70 0 0 -116 -44 -36
0 0 0 0 0 0 0 -1 0 0 0 0 -9 -8 0 -16 -19 -10 -16 -20 -56 -83 -126 -134 -107 -71 -98 -344 -313 -240 -216 -217 -201 -190 -159 -158 -81 -58 -96 -82 0 -113 -47 -32
0 0 0 0 0 0 0 0 0 0 0 0 -15 0 0 -1 -2 0 -50 -49 -73 -59 -104 -142 -107 -113 -92 -57 -276 -228 -194 -193 -186 -169 -165 -96 -107 -77 -34 -62 -93 -78 -47 -68
0 0 0 0 0 0 0 0 0 0 -20 -3 0 -55 0 0 0 -14 0 0 0 -15 -73 -100 -88 -79 -92 -90 -62 -49 -224 -207 -172 -155 -146 -81 -96 -71 -91 -50 -38 -64 -36 -34
0 0 0 0 0 0 -3 0 -3 -5 0 0 0 -8 -24 0 0 -3 0 0 0 -32 -24 -53 -69 -64 -76 -96 -96 -68 -46 -63 -174 -181 -148 -123 -80 -36 -77 -46 -31 -104 -89 -26
0 0 0 0 0 0 0 0 0 -2 -10 0 0 0 -7 0 -41 0 0 0 -28 -31 -31 -22 -34 -63 -63 -75 -77 -77 -52 -58 -43 -59 -140 -111 -127 -58 -28 -31 -25 -41 -66 -11
0 0 0 0 0 0 0 0 0 -3 -2 -4 -1 0 -12 -3 0 -1 0 0 0 -54 -85 -89 -57 -56 -15 -75 -96 -71 -69 -61 -60 -47 -71 -59 -27 -28 -8 -15 -18 -15 -20 0
0 0 0 0 0 0 0 0 0 0 -20 -4 -1 0 -9 -5 -1 0 0 0 0 -36 -53 -75 -72 -84 -86 -56 -57 -137 -173 -125 -120 -12 -24 -44 -45 -157 -50 -11 -22 -1 0 -11
-5 0 0 0 0 0 0 0 0 0 -1 -3 -11 -1 -44 -7 -29 0 -3 -3 -1 -40 -44 -65 -75 -78 -95 -91 -61 -71 -83 -129 -105 -99 -28 -50 -56 -69 -49 -34 -47 -26 -41 -67
-7 0 0 0 0 -4 0 0 0 0 0 -19 0 -10 -29 -9 -4 -9 -3 -10 -28 0 -44 -55 -58 -69 -90 -102 -98 -55 -47 -71 -61 -41 -85 -79 -40 -50 -50 -62 -79 -87 -66 -62
-14 0 0 0 0 0 0 0 -1 -11 -21 -10 -18 -5 -15 -20 -15 -8 -37 -14 0 0 -58 -43 -43 -56 -66 -103 -125 -103 -82 -56 -62 -47 -46 -52 -55 -40 -55 -76 -62 -53 -68 -68
0 0 0 0 0 0 0 0 -2 0 -3 0 0 0 -6 -16 -8 -3 -14 -15 0 0 0 0 -54 -48 -65 -83 -93 -102 -77 -68 -77 -54 -51 -69 -62 -87 -98 -114 -80 -45 0 0
-9 -21 -8 0 -8 0 0 0 0 0 0 0 -4 -10 -2 -8 -9 -11 -15 -5 0 -3 -18 -157 -63 -68 -69 -52 -71 -70 -67 -76 -98 -88 -101 -92 -88 -89 -65 -28 -1 0 0 0
-13 -15 -3 0 0 0 0 0 0 0 0 0 0 0 0 0 0 -23 -10 -61 -80 -107 -132 -133 -113 -115 -102 -74 -57 -62 -77 -90 -83 -147 -116 -101 -73 -27 -18 0 0 0 0 0
0 -1 -8 -4 0 0 0 0 0 -21 0 0 0 -12 0 0 -5 -26 -7 -191 -164 -187 -181 -171 -128 -60 -54 -82 -65 -61 -82 -92 -77 -64 -61 -29 -19 0 0 0 0 0 0 0
0 0 0 0 0 0 -7 0 -10 -2 0 0 -10 -61 -49 -17 -9 -1 -13 -163 -173 -175 -163 -147 -129 -114 -88 -83 -56 -82 -96 -99 -64 0 0 0 0 0 0 0 0 0 0 0
0 0 0 -8 0 0 -40 -32 -3 0 0 -15 -48 -19 -12 -8 -6 -15 -173 -179 0 0 0 0 0 0 0 0 0 0 0 0 0 0 0 0 0 0 0 0 0 0 0 0
-32 0 0 0 0 -21 -42 -77 -37 -28 -4 -60 -47 -27 -9 -20 -7 -9 0 0 0 0 0 0 0 0 0 0 0 0 0 0 0 0 0 0 0 0 0 0 0 0 0 0
-19 -74 -56 -112 0 0 -38 -5 0 -1 -12 -67 -46 -53 -25 -23 -7 -13 -5 0 0 0 0 0 0 0 0 0 0 0 0 0 0 0 0 0 0 0 0 0 0 0 0 0
-4 -28 -17 -120 -90 -3 0 -2 -5 0 -4 -23 -34 -20 -12 -18 -139 -2 -16 0 0 0 0 0 0 0 0 0 0 0 0 0 0 0 0 0 0 0 0 0 0 0 0 0
-23 0 -3 0 -19 -94 -9 -28 -30 -10 0 0 -14 -7 -3 -3 -39 -34 -57 0 0 0 0 0 0 0 0 0 0 0 0 0 0 0 0 0 0 0 0 0 0 0 0 0
Wind_Speed
nan nan nan nan nan nan nan nan nan nan nan nan nan nan nan nan nan 26 22 20 nan nan nan nan nan nan nan nan nan nan nan nan nan nan nan nan nan nan nan nan nan nan 9 7
nan nan nan nan nan nan nan nan nan nan nan nan nan nan nan nan 18 24 23 24 23 nan nan nan nan nan nan nan nan nan nan nan nan nan nan nan nan nan nan nan nan 8 5 4
nan nan nan nan nan nan nan nan nan nan nan nan nan nan nan nan nan nan 7 19 24 29 25 nan nan nan nan nan nan nan nan nan nan nan nan nan nan nan nan nan nan 2 3 3
nan nan nan nan nan nan nan nan nan nan nan nan nan nan nan nan nan 23 nan 24 23 26 27 23 nan nan nan nan nan nan nan nan nan nan nan nan nan nan nan nan nan nan 3 3
nan nan nan nan nan nan nan nan nan nan nan nan nan nan nan nan nan nan nan 26 26 27 30 24 23 nan nan nan nan nan nan nan nan nan nan nan nan nan nan nan nan nan 2 5
nan nan nan nan nan nan nan nan nan nan nan nan nan nan nan nan nan 29 nan 25 29 28 27 27 22 19 nan nan nan nan nan nan nan nan nan nan nan nan nan nan nan nan 12 11
nan nan nan nan nan nan nan nan nan nan nan nan nan nan nan nan nan nan nan 20 25 27 27 25 29 23 24 nan 23 nan nan nan nan nan nan nan 17 15 nan nan nan nan 14 18
nan nan nan nan nan nan nan nan nan nan nan nan nan nan nan nan nan nan nan nan nan 28 32 29 28 24 25 28 25 27 nan nan nan 19 21 17 23 11 18 17 nan nan 12 11
nan nan nan nan nan nan nan nan nan nan nan nan nan nan nan nan nan nan nan nan nan nan 31 35 32 27 26 26 31 30 32 nan 24 23 17 15 14 13 14 14 15 12 16 17
nan nan nan nan nan nan nan nan nan nan nan nan nan nan nan nan nan nan nan nan nan nan 22 28 36 31 31 27 26 32 32 33 32 25 20 15 12 15 18 15 18 19 21 25
nan nan nan nan nan nan nan nan nan nan nan nan nan nan nan nan nan nan nan nan nan 24 22 25 23 29 30 26 25 25 27 32 27 23 19 24 29 32 31 19 18 24 31 31
nan nan nan nan nan nan nan nan nan nan nan nan nan nan nan nan nan nan nan nan nan 26 20 21 23 25 28 30 28 24 26 30 31 25 34 35 46 34 35 nan 24 26 32 34
nan nan nan nan nan nan nan nan nan nan nan nan nan nan nan nan nan nan nan nan nan 33 31 25 27 24 25 24 25 29 30 34 33 37 19 33 33 nan nan 26 33 37 40 41
nan nan nan nan nan nan nan nan nan nan nan nan nan nan nan nan nan nan nan nan nan nan 29 26 23 20 20 27 30 38 34 31 25 34 35 39 40 44 43 41 42 46 43 43
nan nan nan nan nan nan nan nan nan nan nan nan nan nan nan nan nan nan nan nan nan nan 30 21 14 18 22 30 34 41 41 41 40 42 42 42 44 44 49 51 50 47 45 44
nan nan nan nan nan nan nan nan nan nan nan nan nan nan nan nan nan nan nan nan nan nan nan 31 40 37 30 37 38 37 41 43 42 45 45 47 47 46 47 48 47 46 46 46
nan nan nan nan nan nan nan nan nan nan nan nan nan nan nan nan nan nan nan nan nan nan nan nan 32 39 31 27 31 37 39 43 45 45 44 45 47 46 46 46 nan nan nan nan
nan nan nan nan nan nan nan nan nan nan nan nan nan nan nan nan nan nan nan nan nan nan nan 29 31 39 40 38 36 41 42 44 45 47 48 48 46 46 nan nan nan nan nan nan
nan nan nan nan nan nan nan nan nan nan nan nan nan nan nan nan nan nan nan nan nan nan 32 34 35 41 44 46 47 51 47 44 45 44 44 44 46 nan nan nan nan nan nan nan
nan nan nan nan nan nan nan nan nan nan nan nan nan nan nan nan nan nan nan nan nan nan 38 41 42 44 45 43 47 49 48 48 45 43 nan nan nan nan nan nan nan nan nan nan
nan nan nan nan nan nan nan nan nan nan nan nan nan nan nan nan nan nan nan nan nan nan nan nan nan 44 43 44 45 45 44 nan nan nan nan nan nan nan nan nan nan nan nan nan
nan nan nan nan nan nan nan nan nan nan nan nan nan nan nan nan nan nan nan nan nan nan nan nan nan nan nan nan nan nan nan nan nan nan nan nan nan nan nan nan nan nan nan nan
nan nan nan nan nan nan nan nan nan nan nan nan 33 43 nan nan nan nan nan nan nan nan nan nan nan nan nan nan nan nan nan nan nan nan nan nan nan nan nan nan nan nan nan nan
nan nan nan nan nan nan nan nan nan nan nan nan nan nan nan nan nan nan nan nan nan nan nan nan nan nan nan nan nan nan nan nan nan nan nan nan nan nan nan nan nan nan nan nan
nan nan nan nan nan nan nan nan nan nan nan nan nan nan nan nan nan nan nan nan nan nan nan nan nan nan nan nan nan nan nan nan nan nan nan nan nan nan nan nan nan nan nan nan
nan nan nan nan nan nan nan 36 nan nan nan nan nan nan nan nan nan nan nan nan nan nan nan nan nan nan nan nan nan nan nan nan nan nan nan nan nan nan nan nan nan nan nan nan
Wind_Direction
nan nan nan nan nan nan nan nan nan nan nan nan nan nan nan nan nan 349 19 359 nan nan nan nan nan nan nan nan nan nan nan nan nan nan nan nan nan nan nan nan nan nan 109 105
nan nan nan nan nan nan nan nan nan nan nan nan nan nan nan nan 307 314 5 359 359 nan nan nan nan nan nan nan nan nan nan nan nan nan nan nan nan nan nan nan nan 95 79 75
nan nan nan nan nan nan nan nan nan nan nan nan nan nan nan nan nan nan 359 13 352 338 339 nan nan nan nan nan nan nan nan nan nan nan nan nan nan nan nan nan nan 104 346 281
nan nan nan nan nan nan nan nan nan nan nan nan nan nan nan nan nan 345 nan 6 356 348 342 343 nan nan nan nan nan nan nan nan nan nan nan nan nan nan nan nan nan nan 231 242
nan nan nan nan nan nan nan nan nan nan nan nan nan nan nan nan nan nan nan 339 353 355 347 350 360 nan nan nan nan nan nan nan nan nan nan nan nan nan nan nan nan nan 273 284
nan nan nan nan nan nan nan nan nan nan nan nan nan nan nan nan nan 328 nan 330 339 345 359 351 357 358 nan nan nan nan nan nan nan nan nan nan nan nan nan nan nan nan 260 274
nan nan nan nan nan nan nan nan nan nan nan nan nan nan nan nan nan nan nan 318 327 350 0 349 347 345 344 nan 352 nan nan nan nan nan nan nan 350 352 nan nan nan nan 273 260
nan nan nan nan nan nan nan nan nan nan nan nan nan nan nan nan nan nan nan nan nan 345 347 355 355 344 345 348 349 346 nan nan nan 350 354 349 358 343 358 335 nan nan 276 294
nan nan nan nan nan nan nan nan nan nan nan nan nan nan nan nan nan nan nan nan nan nan 339 342 344 346 348 346 348 342 341 nan 346 344 327 346 353 334 342 341 347 282 305 307
nan nan nan nan nan nan nan nan nan nan nan nan nan nan nan nan nan nan nan nan nan nan 314 325 335 342 342 344 341 343 340 345 347 335 334 325 315 303 288 283 289 283 291 290
nan nan nan nan nan nan nan nan nan nan nan nan nan nan nan nan nan nan nan nan nan 292 292 301 304 324 348 345 341 343 337 329 326 318 302 302 285 291 270 274 286 298 301 300
nan nan nan nan nan nan nan nan nan nan nan nan nan nan nan nan nan nan nan nan nan 297 294 289 283 286 309 349 353 336 322 321 314 312 281 281 263 271 256 nan 295 291 295 296
nan nan nan nan nan nan nan nan nan nan nan nan nan nan nan nan nan nan nan nan nan 298 293 279 284 276 279 300 325 321 318 304 316 277 308 313 316 nan nan 288 291 291 293 294
nan nan nan nan nan nan nan nan nan nan nan nan nan nan nan nan nan nan nan nan nan nan 294 282 284 281 280 283 291 283 281 296 308 299 293 293 297 297 292 292 293 291 291 290
nan nan nan nan nan nan nan nan nan nan nan nan nan nan nan nan nan nan nan nan nan nan 295 288 291 281 284 279 279 284 282 283 285 283 284 288 287 287 287 286 285 288 288 287
nan nan nan nan nan nan nan nan nan nan nan nan nan nan nan nan nan nan nan nan nan nan nan 291 293 298 279 275 275 275 277 280 286 289 286 285 283 284 283 283 285 286 286 291
nan nan nan nan nan nan nan nan nan nan nan nan nan nan nan nan nan nan nan nan nan nan nan nan 304 294 289 287 285 282 278 275 274 277 281 284 284 284 287 290 nan nan nan nan
nan nan nan nan nan nan nan nan nan nan nan nan nan nan nan nan nan nan nan nan nan nan nan 285 286 284 292 294 289 284 281 278 281 282 282 284 286 289 nan nan nan nan nan nan
nan nan nan nan nan nan nan nan nan nan nan nan nan nan nan nan nan nan nan nan nan nan 278 282 282 279 281 289 291 290 287 280 277 278 280 283 286 nan nan nan nan nan nan nan
nan nan nan nan nan nan nan nan nan nan nan nan nan nan nan nan nan nan nan nan nan nan 274 283 287 288 288 290 293 293 291 288 285 284 nan nan nan nan nan nan nan nan nan nan
nan nan nan nan nan nan nan nan nan nan nan nan nan nan nan nan nan nan nan nan nan nan nan nan nan 287 291 291 292 293 293 nan nan nan nan nan nan nan nan nan nan nan nan nan
nan nan nan nan nan nan nan nan nan nan nan nan nan nan nan nan nan nan nan nan nan nan nan nan nan nan nan nan nan nan nan nan nan nan nan nan nan nan nan nan nan nan nan nan
nan nan nan nan nan nan nan nan nan nan nan nan 216 226 nan nan nan nan nan nan nan nan nan nan nan nan nan nan nan nan nan nan nan nan nan nan nan nan nan nan nan nan nan nan
nan nan nan nan nan nan nan nan nan nan nan nan nan nan nan nan nan nan nan nan nan nan nan nan nan nan nan nan nan nan nan nan nan nan nan nan nan nan nan nan nan nan nan nan
nan nan nan nan nan nan nan nan nan nan nan nan nan nan nan nan nan nan nan nan nan nan nan nan nan nan nan nan nan nan nan nan nan nan nan nan nan nan nan nan nan nan nan nan
nan nan nan nan nan nan nan 235 nan nan nan nan nan nan nan nan nan nan nan nan nan nan nan nan nan nan nan nan nan nan nan nan nan nan nan nan nan nan nan nan nan nan nan nan